Location: Quaker Farms
(41.4276°N, 73.1557°W)
Time: 00:37:20
(UTC+00:00)

Vanguard 1 - Pass Details

Date: 15 June 2021
Orbit: 651 x 3831 km, 34.2° (Epoch: 28 July)

Event Time Altitude Azimuth Distance (km) Brightness Sun altitude
Rises 05:11:07 0° 257° (WSW) 7,675 14.4 -25.1°
Reaches altitude 10° 05:16:52 10° 255° (WSW) 6,341 14.0 -25.0°
Maximum altitude 05:34:52 63° 180° (S) 2,414 11.6 -24.5°
Drops below altitude 10° 05:44:36 10° 102° (ESE) 3,630 13.0 -24.2°
Sets 05:46:58 0° 99° (E) 4,317 13.4 -24.1°
